ACA1074 KDEN-CYUL

Flight info

Callsign ACA1074
Flight time 3h 22m
Altitude 37000
Route EEONS8 WYNDM DCT KD63A DCT KP66G DCT KG69K DCT GIJ J554 CRL DCT WOZEE DCT ROC DCT ART IMPAC4
Aircraft A320/M-SDE3FGHIRWY/LB1

Departure

Time 2026-05-03 22:56
Airport Denver International Airport (KDEN)

Arrival

Time 2026-05-04 02:18
Airport Montreal / Pierre Elliott Trudeau International Airport (CYUL)
Time Latitude Longitude Altitude Speed Heading
2026-05-03 22:37 39.85939 -104.67244 5366 ft 0 kts 180°
2026-05-03 22:39 39.85940 -104.67244 5366 ft 0 kts 180°
2026-05-03 22:43 39.85957 -104.67244 5363 ft 4 kts 180°
2026-05-03 22:44 39.85979 -104.67244 5364 ft 4 kts 185°
2026-05-03 22:44 39.85999 -104.67233 5362 ft 4 kts 249°
2026-05-03 22:44 39.86002 -104.67202 5363 ft 4 kts 271°
2026-05-03 22:44 39.86002 -104.67193 5364 ft 0 kts 271°
2026-05-03 22:46 39.86002 -104.67199 5363 ft 1 kts 271°
2026-05-03 22:47 39.86002 -104.67240 5362 ft 8 kts 271°
2026-05-03 22:47 39.86004 -104.67338 5366 ft 12 kts 271°
2026-05-03 22:47 39.86005 -104.67446 5366 ft 12 kts 271°
2026-05-03 22:47 39.86006 -104.67560 5366 ft 13 kts 268°
2026-05-03 22:48 39.86006 -104.67678 5366 ft 13 kts 271°
2026-05-03 22:48 39.86006 -104.67800 5366 ft 14 kts 270°
2026-05-03 22:48 39.86008 -104.67927 5364 ft 14 kts 270°
2026-05-03 22:48 39.86008 -104.68059 5366 ft 15 kts 270°
2026-05-03 22:49 39.86008 -104.68171 5366 ft 11 kts 271°
2026-05-03 22:49 39.86004 -104.68269 5366 ft 11 kts 262°
2026-05-03 22:49 39.86004 -104.68369 5366 ft 12 kts 276°
2026-05-03 22:49 39.86034 -104.68465 5365 ft 12 kts 272°
2026-05-03 22:50 39.85974 -104.68510 5364 ft 11 kts 178°
2026-05-03 22:50 39.85903 -104.68509 5364 ft 9 kts 180°
2026-05-03 22:50 39.85846 -104.68510 5365 ft 7 kts 181°
2026-05-03 22:50 39.85806 -104.68511 5365 ft 5 kts 181°
2026-05-03 22:51 39.85776 -104.68511 5365 ft 7 kts 180°
2026-05-03 22:51 39.85694 -104.68512 5366 ft 14 kts 181°
2026-05-03 22:51 39.85599 -104.68512 5364 ft 14 kts 180°
2026-05-03 22:51 39.85503 -104.68513 5365 ft 14 kts 181°
2026-05-03 22:52 39.85408 -104.68516 5365 ft 14 kts 181°
2026-05-03 22:52 39.85314 -104.68516 5365 ft 14 kts 180°
2026-05-03 22:52 39.85221 -104.68530 5365 ft 13 kts 213°
2026-05-03 22:52 39.85203 -104.68643 5366 ft 13 kts 269°
2026-05-03 22:53 39.85202 -104.68767 5366 ft 14 kts 269°
2026-05-03 22:53 39.85200 -104.68896 5365 ft 15 kts 269°
2026-05-03 22:53 39.85198 -104.69030 5364 ft 15 kts 269°
2026-05-03 22:53 39.85197 -104.69168 5366 ft 16 kts 273°
2026-05-03 22:54 39.85201 -104.69310 5365 ft 16 kts 270°
2026-05-03 22:54 39.85201 -104.69456 5364 ft 16 kts 270°
2026-05-03 22:54 39.85203 -104.69579 5366 ft 13 kts 271°
2026-05-03 22:54 39.85252 -104.69658 5364 ft 13 kts 358°
2026-05-03 22:55 39.85353 -104.69655 5364 ft 21 kts
2026-05-03 22:55 39.85715 -104.69652 5369 ft 86 kts
2026-05-03 22:55 39.86520 -104.69642 5364 ft 144 kts
2026-05-03 22:55 39.87685 -104.69630 5368 ft 190 kts
2026-05-03 22:56 39.89023 -104.69606 6070 ft 187 kts 358°
2026-05-03 22:56 39.90302 -104.69593 6912 ft 183 kts 356°
2026-05-03 22:56 39.91575 -104.69353 7301 ft 197 kts 19°
2026-05-03 22:56 39.92611 -104.68028 7444 ft 224 kts 60°
2026-05-03 22:57 39.93261 -104.66090 7632 ft 244 kts 63°
2026-05-03 22:57 39.93972 -104.63953 7748 ft 269 kts 63°
2026-05-03 22:57 39.94725 -104.61598 7992 ft 293 kts 70°
2026-05-03 22:57 39.94994 -104.58911 8491 ft 305 kts 87°
2026-05-03 22:58 39.95063 -104.56128 9187 ft 309 kts 86°
2026-05-03 22:58 39.95129 -104.53318 9931 ft 311 kts 87°
2026-05-03 22:58 39.95201 -104.50439 10269 ft 330 kts 87°
2026-05-03 22:58 39.95284 -104.47345 10444 ft 353 kts 87°
2026-05-03 22:59 39.95375 -104.44047 10616 ft 373 kts 87°
2026-05-03 22:59 39.95468 -104.40622 11077 ft 382 kts 86°
2026-05-03 22:59 39.95614 -104.37139 11666 ft 387 kts 84°
2026-05-03 22:59 39.95838 -104.33628 12349 ft 389 kts 84°
2026-05-03 23:00 39.96106 -104.30100 12949 ft 393 kts 83°
2026-05-03 23:00 39.96391 -104.26544 13583 ft 396 kts 83°
2026-05-03 23:00 39.96675 -104.22965 14155 ft 399 kts 83°
2026-05-03 23:00 39.96950 -104.19343 14712 ft 402 kts 84°
2026-05-03 23:01 39.97212 -104.15713 15311 ft 404 kts 84°
2026-05-03 23:01 39.97513 -104.12065 15883 ft 406 kts 83°
2026-05-03 23:01 39.97881 -104.08459 16452 ft 408 kts 82°
2026-05-03 23:01 39.98300 -104.04784 17028 ft 411 kts 81°
2026-05-03 23:02 39.98736 -104.01091 17605 ft 414 kts 81°
2026-05-03 23:02 39.99173 -103.97370 18162 ft 416 kts 81°
2026-05-03 23:02 39.99600 -103.93617 18638 ft 420 kts 81°
2026-05-03 23:02 40.00057 -103.89844 19091 ft 423 kts 79°
2026-05-03 23:03 40.00607 -103.86052 19530 ft 427 kts 78°
2026-05-03 23:03 40.01220 -103.82237 19926 ft 433 kts 77°
2026-05-03 23:03 40.01867 -103.78381 20327 ft 437 kts 77°
2026-05-03 23:03 40.02525 -103.74492 20733 ft 441 kts 76°
2026-05-03 23:04 40.03192 -103.70571 21132 ft 444 kts 76°
2026-05-03 23:04 40.03860 -103.66618 21526 ft 448 kts 76°
2026-05-03 23:04 40.04526 -103.62633 21924 ft 451 kts 76°
2026-05-03 23:04 40.05189 -103.58607 22303 ft 455 kts 76°
2026-05-03 23:05 40.05848 -103.54557 22668 ft 458 kts 77°
2026-05-03 23:05 40.06507 -103.50472 23034 ft 461 kts 76°
2026-05-03 23:05 40.07171 -103.46354 23406 ft 465 kts 76°
2026-05-03 23:05 40.07839 -103.42217 23751 ft 468 kts 76°
2026-05-03 23:06 40.08514 -103.38054 24060 ft 470 kts 76°
2026-05-03 23:06 40.09192 -103.33865 24366 ft 473 kts 76°
2026-05-03 23:06 40.09871 -103.29651 24665 ft 475 kts 76°
2026-05-03 23:06 40.10553 -103.25412 24956 ft 477 kts 76°
2026-05-03 23:07 40.11236 -103.21161 25237 ft 480 kts 76°
2026-05-03 23:07 40.11919 -103.16891 25513 ft 482 kts 76°
2026-05-03 23:07 40.12601 -103.12595 25791 ft 484 kts 76°
2026-05-03 23:07 40.13283 -103.08279 26001 ft 486 kts 76°
2026-05-03 23:08 40.13968 -103.03939 26276 ft 488 kts 76°
2026-05-03 23:08 40.14654 -102.99590 26527 ft 490 kts 76°
2026-05-03 23:08 40.15346 -102.95216 26772 ft 492 kts 76°
2026-05-03 23:08 40.16040 -102.90831 27010 ft 494 kts 76°
2026-05-03 23:09 40.16734 -102.86417 27243 ft 496 kts 76°
2026-05-03 23:09 40.17428 -102.81989 27470 ft 498 kts 76°
2026-05-03 23:09 40.18120 -102.77545 27689 ft 500 kts 76°
2026-05-03 23:09 40.18811 -102.73081 27911 ft 502 kts 76°
2026-05-03 23:10 40.19503 -102.68603 28109 ft 504 kts 76°
2026-05-03 23:10 40.20197 -102.64103 28314 ft 505 kts 76°
2026-05-03 23:10 40.20893 -102.59602 28598 ft 505 kts 76°
2026-05-03 23:10 40.21580 -102.55165 28873 ft 505 kts 76°
2026-05-03 23:11 40.22283 -102.50603 29157 ft 504 kts 76°
2026-05-03 23:11 40.22962 -102.46167 29441 ft 504 kts 76°
2026-05-03 23:11 40.23647 -102.41672 29728 ft 504 kts 76°
2026-05-03 23:11 40.24331 -102.37178 30037 ft 503 kts 76°
2026-05-03 23:12 40.25014 -102.32688 30292 ft 503 kts 76°
2026-05-03 23:12 40.25694 -102.28201 30549 ft 502 kts 76°
2026-05-03 23:12 40.26370 -102.23714 30799 ft 502 kts 76°
2026-05-03 23:12 40.27042 -102.19237 31043 ft 501 kts 76°
2026-05-03 23:13 40.27715 -102.14760 31286 ft 501 kts 76°
2026-05-03 23:13 40.28387 -102.10283 31533 ft 501 kts 76°
2026-05-03 23:13 40.29055 -102.05810 31778 ft 500 kts 76°
2026-05-03 23:13 40.29722 -102.01336 32031 ft 501 kts 76°
2026-05-03 23:14 40.30387 -101.96861 32259 ft 501 kts 76°
2026-05-03 23:14 40.31049 -101.92379 32498 ft 501 kts 76°
2026-05-03 23:14 40.31710 -101.87908 32746 ft 500 kts 76°
2026-05-03 23:14 40.32373 -101.83434 32993 ft 500 kts 76°
2026-05-03 23:15 40.33034 -101.78959 33234 ft 500 kts 76°
2026-05-03 23:15 40.33687 -101.74495 33475 ft 499 kts 76°
2026-05-03 23:15 40.34340 -101.70022 33715 ft 499 kts 76°
2026-05-03 23:15 40.34987 -101.65557 33942 ft 499 kts 76°
2026-05-03 23:16 40.35635 -101.61079 34125 ft 500 kts 76°
2026-05-03 23:16 40.36282 -101.56598 34316 ft 500 kts 76°
2026-05-03 23:16 40.36929 -101.52117 34516 ft 500 kts 76°
2026-05-03 23:16 40.37574 -101.47637 34708 ft 500 kts 76°
2026-05-03 23:17 40.38214 -101.43163 34894 ft 500 kts 77°
2026-05-03 23:17 40.38780 -101.38658 35077 ft 500 kts 79°
2026-05-03 23:17 40.39234 -101.34131 35250 ft 501 kts 81°
2026-05-03 23:17 40.39604 -101.29589 35427 ft 501 kts 82°
2026-05-03 23:18 40.39936 -101.25028 35567 ft 502 kts 82°
2026-05-03 23:18 40.40265 -101.20469 35715 ft 502 kts 82°
2026-05-03 23:18 40.40610 -101.15916 35874 ft 502 kts 81°
2026-05-03 23:18 40.40982 -101.11368 36035 ft 501 kts 81°
2026-05-03 23:19 40.41372 -101.06825 36193 ft 501 kts 81°
2026-05-03 23:19 40.41772 -101.02283 36343 ft 501 kts 81°
2026-05-03 23:19 40.42170 -100.97751 36487 ft 500 kts 81°
2026-05-03 23:20 40.42816 -100.90213 36733 ft 500 kts 81°
2026-05-03 23:20 40.43196 -100.85676 36871 ft 500 kts 81°
2026-05-03 23:20 40.43573 -100.81132 36888 ft 502 kts 81°
2026-05-03 23:21 40.44319 -100.72025 36884 ft 502 kts 81°
2026-05-03 23:21 40.45061 -100.62912 36884 ft 502 kts 81°
2026-05-03 23:22 40.46177 -100.49221 36883 ft 503 kts 81°
2026-05-03 23:22 40.46913 -100.40078 36878 ft 504 kts 81°
2026-05-03 23:23 40.47631 -100.30918 36887 ft 504 kts 81°
2026-05-03 23:23 40.48340 -100.21743 36894 ft 505 kts 81°
2026-05-03 23:24 40.49039 -100.12570 36900 ft 505 kts 81°
2026-05-03 23:24 40.49738 -100.03379 36896 ft 506 kts 81°
2026-05-03 23:25 40.50509 -99.94259 36897 ft 505 kts 79°
2026-05-03 23:25 40.51539 -99.85141 36897 ft 505 kts 78°
2026-05-03 23:26 40.52621 -99.76042 36898 ft 505 kts 78°
2026-05-03 23:26 40.53629 -99.66897 36894 ft 506 kts 79°
2026-05-03 23:27 40.54581 -99.57718 36899 ft 506 kts 79°
2026-05-03 23:27 40.55535 -99.48550 36900 ft 506 kts 79°
2026-05-03 23:28 40.56503 -99.39369 36907 ft 507 kts 78°
2026-05-03 23:28 40.57468 -99.30184 36911 ft 507 kts 78°
2026-05-03 23:29 40.58422 -99.20992 36907 ft 507 kts 79°
2026-05-03 23:29 40.59366 -99.11815 36920 ft 508 kts 79°
2026-05-03 23:30 40.60296 -99.02607 36934 ft 508 kts 79°
2026-05-03 23:30 40.61222 -98.93393 36927 ft 508 kts 79°
2026-05-03 23:31 40.62148 -98.84168 36923 ft 508 kts 79°
2026-05-03 23:31 40.63063 -98.74941 36917 ft 508 kts 79°
2026-05-03 23:32 40.63970 -98.65708 36921 ft 509 kts 78°
2026-05-03 23:32 40.64868 -98.56468 36902 ft 509 kts 79°
2026-05-03 23:33 40.65764 -98.47220 36896 ft 509 kts 79°
2026-05-03 23:33 40.66654 -98.37959 36914 ft 510 kts 79°
2026-05-03 23:34 40.67535 -98.28699 36933 ft 510 kts 79°
2026-05-03 23:34 40.68413 -98.19433 36913 ft 510 kts 79°
2026-05-03 23:35 40.69283 -98.10155 36902 ft 510 kts 79°
2026-05-03 23:35 40.70146 -98.00867 36895 ft 511 kts 79°
2026-05-03 23:36 40.70996 -97.91576 36900 ft 511 kts 79°
2026-05-03 23:36 40.71839 -97.82274 36894 ft 511 kts 79°
2026-05-03 23:37 40.72684 -97.72965 36888 ft 511 kts 79°
2026-05-03 23:37 40.73518 -97.63650 36887 ft 512 kts 79°
2026-05-03 23:38 40.74338 -97.54324 36897 ft 512 kts 79°
2026-05-03 23:38 40.75149 -97.44983 36888 ft 513 kts 79°
2026-05-03 23:39 40.75959 -97.35622 36883 ft 514 kts 79°
2026-05-03 23:39 40.76767 -97.26261 36886 ft 514 kts 79°
2026-05-03 23:40 40.77559 -97.16949 36887 ft 514 kts 79°
2026-05-03 23:40 40.78346 -97.07577 36895 ft 514 kts 79°
2026-05-03 23:41 40.79134 -96.98204 36903 ft 514 kts 79°
2026-05-03 23:41 40.79913 -96.88830 36910 ft 514 kts 79°
2026-05-03 23:42 40.80679 -96.79446 36923 ft 514 kts 79°
2026-05-03 23:42 40.81440 -96.70055 36918 ft 515 kts 79°
2026-05-03 23:43 40.82198 -96.60658 36908 ft 515 kts 79°
2026-05-03 23:43 40.82944 -96.51250 36886 ft 515 kts 79°
2026-05-03 23:44 40.83678 -96.41843 36897 ft 515 kts 79°
2026-05-03 23:44 40.84411 -96.32428 36894 ft 515 kts 79°
2026-05-03 23:45 40.85139 -96.23009 36901 ft 516 kts 79°
2026-05-03 23:45 40.85855 -96.13578 36903 ft 516 kts 79°
2026-05-03 23:46 40.86563 -96.04153 36934 ft 516 kts 79°
2026-05-03 23:46 40.87261 -95.94719 36928 ft 516 kts 79°
2026-05-03 23:47 40.87958 -95.85287 36921 ft 516 kts 79°
2026-05-03 23:47 40.88650 -95.75852 36914 ft 516 kts 79°
2026-05-03 23:48 40.89325 -95.66410 36918 ft 516 kts 79°
2026-05-03 23:48 40.89991 -95.56968 36896 ft 516 kts 80°
2026-05-03 23:49 40.90659 -95.47529 36896 ft 516 kts 79°
2026-05-03 23:49 40.91313 -95.38152 36897 ft 516 kts 80°
2026-05-03 23:50 40.91855 -95.30242 36926 ft 516 kts 80°
2026-05-03 23:50 40.92594 -95.19265 36911 ft 516 kts 80°
2026-05-03 23:51 40.93231 -95.09823 36902 ft 515 kts 80°
2026-05-03 23:51 40.93861 -95.00383 36894 ft 515 kts 80°
2026-05-03 23:52 40.94472 -94.90933 36899 ft 515 kts 80°
2026-05-03 23:52 40.95077 -94.81492 36888 ft 515 kts 80°
2026-05-03 23:53 40.95681 -94.72049 36881 ft 515 kts 80°
2026-05-03 23:53 40.96274 -94.62600 36892 ft 515 kts 80°
2026-05-03 23:54 40.96859 -94.53158 36919 ft 515 kts 80°
2026-05-03 23:54 40.97439 -94.43711 36912 ft 515 kts 80°
2026-05-03 23:55 40.98009 -94.34268 36906 ft 515 kts 80°
2026-05-03 23:55 40.98571 -94.24827 36903 ft 515 kts 80°
2026-05-03 23:56 40.99124 -94.15377 36910 ft 515 kts 80°
2026-05-03 23:56 40.99664 -94.05939 36895 ft 514 kts 80°
2026-05-03 23:57 41.00484 -93.96584 36883 ft 508 kts 73°
2026-05-03 23:57 41.01804 -93.87395 36870 ft 508 kts 73°
2026-05-03 23:58 41.03113 -93.78200 36897 ft 508 kts 73°
2026-05-03 23:58 41.04410 -93.69006 36886 ft 507 kts 73°
2026-05-03 23:59 41.05694 -93.59808 36881 ft 507 kts 73°
2026-05-03 23:59 41.06969 -93.50626 36886 ft 507 kts 73°
2026-05-04 00:00 41.08240 -93.41440 36907 ft 507 kts 73°
2026-05-04 00:00 41.09505 -93.32258 36897 ft 506 kts 73°
2026-05-04 00:01 41.10763 -93.23082 36890 ft 506 kts 74°
2026-05-04 00:01 41.12010 -93.13909 36867 ft 506 kts 74°
2026-05-04 00:02 41.13247 -93.04729 36885 ft 506 kts 74°
2026-05-04 00:02 41.14477 -92.95549 36872 ft 505 kts 74°
2026-05-04 00:03 41.15696 -92.86374 36859 ft 505 kts 74°
2026-05-04 00:03 41.16912 -92.77202 36862 ft 505 kts 74°
2026-05-04 00:04 41.18125 -92.68028 36868 ft 505 kts 74°
2026-05-04 00:04 41.19324 -92.58850 36886 ft 504 kts 74°
2026-05-04 00:05 41.20315 -92.51222 36880 ft 504 kts 74°
2026-05-04 00:05 41.21502 -92.42050 36876 ft 504 kts 74°
2026-05-04 00:06 41.22870 -92.31382 36868 ft 504 kts 75°
2026-05-04 00:06 41.24037 -92.22213 36846 ft 502 kts 75°
2026-05-04 00:07 41.25009 -92.14560 36820 ft 501 kts 75°
2026-05-04 00:07 41.26155 -92.05417 36821 ft 502 kts 75°
2026-05-04 00:08 41.27297 -91.96268 36823 ft 502 kts 75°
2026-05-04 00:08 41.28437 -91.87113 36851 ft 502 kts 75°
2026-05-04 00:09 41.29567 -91.77970 36846 ft 501 kts 75°
2026-05-04 00:09 41.30684 -91.68822 36843 ft 501 kts 75°
2026-05-04 00:10 41.31796 -91.59687 36839 ft 500 kts 75°
2026-05-04 00:10 41.32905 -91.50544 36851 ft 500 kts 75°
2026-05-04 00:11 41.34005 -91.41408 36862 ft 500 kts 76°
2026-05-04 00:11 41.35084 -91.32374 36831 ft 496 kts 76°
2026-05-04 00:12 41.36153 -91.23314 36833 ft 496 kts 76°
2026-05-04 00:12 41.37209 -91.14247 36847 ft 495 kts 76°
2026-05-04 00:13 41.38264 -91.05189 36839 ft 495 kts 76°
2026-05-04 00:13 41.39325 -90.96132 36832 ft 495 kts 76°
2026-05-04 00:14 41.40376 -90.87074 36814 ft 495 kts 76°
2026-05-04 00:14 41.41408 -90.78015 36811 ft 495 kts 77°
2026-05-04 00:15 41.42431 -90.68954 36830 ft 494 kts 77°
2026-05-04 00:15 41.43450 -90.59893 36819 ft 494 kts 77°
2026-05-04 00:16 41.44459 -90.50839 36815 ft 494 kts 77°
2026-05-04 00:16 41.45463 -90.41783 36813 ft 494 kts 77°
2026-05-04 00:17 41.46460 -90.32729 36828 ft 494 kts 77°
2026-05-04 00:17 41.47448 -90.23670 36818 ft 493 kts 77°
2026-05-04 00:18 41.48432 -90.14616 36814 ft 493 kts 77°
2026-05-04 00:18 41.49408 -90.05555 36812 ft 493 kts 77°
2026-05-04 00:19 41.50363 -89.96488 36836 ft 494 kts 78°
2026-05-04 00:19 41.51181 -89.87384 36824 ft 495 kts 79°
2026-05-04 00:20 41.51938 -89.78258 36813 ft 495 kts 79°
2026-05-04 00:20 41.52714 -89.69128 36815 ft 495 kts 79°
2026-05-04 00:21 41.53503 -89.60065 36815 ft 495 kts 79°
2026-05-04 00:21 41.54289 -89.50868 36814 ft 495 kts 79°
2026-05-04 00:22 41.55058 -89.41733 36812 ft 495 kts 79°
2026-05-04 00:22 41.55815 -89.32659 36814 ft 495 kts 79°
2026-05-04 00:23 41.56572 -89.23517 36846 ft 495 kts 79°
2026-05-04 00:23 41.57328 -89.14379 36821 ft 495 kts 79°
2026-05-04 00:24 41.58073 -89.05243 36811 ft 495 kts 79°
2026-05-04 00:24 41.58805 -88.96104 36817 ft 495 kts 79°
2026-05-04 00:25 41.59530 -88.86962 36821 ft 495 kts 79°
2026-05-04 00:25 41.60250 -88.77820 36825 ft 495 kts 80°
2026-05-04 00:26 41.60960 -88.68666 36819 ft 495 kts 80°
2026-05-04 00:26 41.61665 -88.59516 36815 ft 495 kts 80°
2026-05-04 00:27 41.62361 -88.50363 36813 ft 495 kts 80°
2026-05-04 00:27 41.63059 -88.41202 36828 ft 495 kts 80°
2026-05-04 00:28 41.63750 -88.32042 36847 ft 495 kts 80°
2026-05-04 00:28 41.64431 -88.22876 36846 ft 495 kts 80°
2026-05-04 00:29 41.65104 -88.13710 36844 ft 495 kts 80°
2026-05-04 00:29 41.65763 -88.04547 36847 ft 496 kts 80°
2026-05-04 00:30 41.66414 -87.95361 36838 ft 496 kts 81°
2026-05-04 00:30 41.67059 -87.86184 36820 ft 496 kts 81°
2026-05-04 00:31 41.67707 -87.76994 36818 ft 496 kts 81°
2026-05-04 00:31 41.68344 -87.67804 36833 ft 496 kts 81°
2026-05-04 00:32 41.68968 -87.58640 36843 ft 496 kts 81°
2026-05-04 00:32 41.69590 -87.49441 36840 ft 496 kts 81°
2026-05-04 00:33 41.70510 -87.35642 36845 ft 496 kts 81°
2026-05-04 00:34 41.71111 -87.26437 36855 ft 496 kts 81°
2026-05-04 00:34 41.71705 -87.17235 36862 ft 496 kts 81°
2026-05-04 00:35 41.72289 -87.08030 36868 ft 496 kts 81°
2026-05-04 00:35 41.72869 -86.98829 36876 ft 496 kts 81°
2026-05-04 00:36 41.73443 -86.89688 36905 ft 496 kts 82°
2026-05-04 00:36 41.74005 -86.80496 36887 ft 495 kts 82°
2026-05-04 00:37 41.74559 -86.71309 36883 ft 495 kts 82°
2026-05-04 00:37 41.75107 -86.62129 36882 ft 495 kts 82°
2026-05-04 00:38 41.75651 -86.52952 36907 ft 495 kts 82°
2026-05-04 00:38 41.76189 -86.43768 36903 ft 494 kts 82°
2026-05-04 00:39 41.76713 -86.34583 36898 ft 494 kts 82°
2026-05-04 00:39 41.77388 -86.25436 36896 ft 493 kts 78°
2026-05-04 00:40 41.78438 -86.16376 36908 ft 492 kts 77°
2026-05-04 00:40 41.79555 -86.07332 36890 ft 492 kts 77°
2026-05-04 00:41 41.80578 -85.98251 36883 ft 493 kts 78°
2026-05-04 00:41 41.81529 -85.89145 36886 ft 494 kts 78°
2026-05-04 00:42 41.82474 -85.80018 36893 ft 494 kts 78°
2026-05-04 00:42 41.83435 -85.70900 36898 ft 494 kts 78°
2026-05-04 00:43 41.84393 -85.61838 36897 ft 494 kts 78°
2026-05-04 00:43 41.85341 -85.52713 36904 ft 494 kts 78°
2026-05-04 00:44 41.86279 -85.43580 36901 ft 494 kts 78°
2026-05-04 00:44 41.87218 -85.34444 36904 ft 495 kts 79°
2026-05-04 00:45 41.88140 -85.25290 36918 ft 495 kts 79°
2026-05-04 00:45 41.89054 -85.16130 36937 ft 496 kts 79°
2026-05-04 00:46 41.89973 -85.06959 36925 ft 496 kts 79°
2026-05-04 00:46 41.90880 -84.97790 36923 ft 496 kts 79°
2026-05-04 00:47 41.91778 -84.88611 36920 ft 496 kts 79°
2026-05-04 00:47 41.92669 -84.79418 36937 ft 496 kts 79°
2026-05-04 00:48 41.93555 -84.70223 36933 ft 496 kts 79°
2026-05-04 00:48 41.94435 -84.61032 36936 ft 497 kts 79°
2026-05-04 00:49 41.95313 -84.51824 36932 ft 497 kts 80°
2026-05-04 00:49 41.96168 -84.42614 36940 ft 497 kts 80°
2026-05-04 00:50 41.97034 -84.33398 36967 ft 497 kts 80°
2026-05-04 00:50 41.97884 -84.24184 36966 ft 497 kts 80°
2026-05-04 00:51 41.98727 -84.14966 36965 ft 497 kts 80°
2026-05-04 00:51 41.99556 -84.05747 36964 ft 497 kts 80°
2026-05-04 00:52 42.00380 -83.96518 36967 ft 497 kts 80°
2026-05-04 00:52 42.01211 -83.87298 36971 ft 497 kts 81°
2026-05-04 00:53 42.02024 -83.78076 36967 ft 497 kts 81°
2026-05-04 00:53 42.02696 -83.70411 36977 ft 496 kts 81°
2026-05-04 00:54 42.03618 -83.59691 36953 ft 496 kts 81°
2026-05-04 00:54 42.04274 -83.51971 36949 ft 496 kts 81°
2026-05-04 00:55 42.05411 -83.42859 36956 ft 491 kts 70°
2026-05-04 00:55 42.07288 -83.34017 36944 ft 491 kts 71°
2026-05-04 00:56 42.09141 -83.25160 36941 ft 492 kts 71°
2026-05-04 00:56 42.10985 -83.16299 36942 ft 492 kts 71°
2026-05-04 00:57 42.12818 -83.07454 36945 ft 492 kts 71°
2026-05-04 00:57 42.14662 -82.98576 36941 ft 492 kts 71°
2026-05-04 00:58 42.16494 -82.89682 36936 ft 493 kts 71°
2026-05-04 00:58 42.18321 -82.80776 36962 ft 493 kts 71°
2026-05-04 00:59 42.20132 -82.71871 36935 ft 492 kts 71°
2026-05-04 00:59 42.21937 -82.62957 36929 ft 492 kts 71°
2026-05-04 01:00 42.23748 -82.54062 36930 ft 492 kts 71°
2026-05-04 01:00 42.25544 -82.45142 36922 ft 492 kts 71°
2026-05-04 01:01 42.27324 -82.36278 36933 ft 493 kts 72°
2026-05-04 01:01 42.29101 -82.27345 36919 ft 493 kts 72°
2026-05-04 01:02 42.30877 -82.18403 36921 ft 493 kts 72°
2026-05-04 01:02 42.32652 -82.09468 36916 ft 493 kts 72°
2026-05-04 01:03 42.34414 -82.00519 36927 ft 492 kts 72°
2026-05-04 01:03 42.36166 -81.91583 36912 ft 491 kts 72°
2026-05-04 01:04 42.37913 -81.82649 36916 ft 491 kts 72°
2026-05-04 01:04 42.39653 -81.73711 36921 ft 492 kts 72°
2026-05-04 01:05 42.41387 -81.64757 36924 ft 492 kts 72°
2026-05-04 01:05 42.43104 -81.55800 36919 ft 492 kts 72°
2026-05-04 01:06 42.44817 -81.46830 36915 ft 492 kts 72°
2026-05-04 01:06 42.46525 -81.37863 36919 ft 492 kts 72°
2026-05-04 01:07 42.48237 -81.28886 36915 ft 492 kts 72°
2026-05-04 01:07 42.49944 -81.19911 36923 ft 492 kts 73°
2026-05-04 01:08 42.51618 -81.10973 36918 ft 493 kts 73°
2026-05-04 01:08 42.53303 -81.01975 36922 ft 493 kts 73°
2026-05-04 01:09 42.54978 -80.92966 36917 ft 493 kts 73°
2026-05-04 01:09 42.56659 -80.83954 36921 ft 493 kts 73°
2026-05-04 01:10 42.58329 -80.74924 36928 ft 494 kts 73°
2026-05-04 01:10 42.59985 -80.65878 36927 ft 494 kts 73°
2026-05-04 01:11 42.61638 -80.56823 36934 ft 494 kts 73°
2026-05-04 01:11 42.63290 -80.47772 36943 ft 494 kts 73°
2026-05-04 01:12 42.64935 -80.38701 36939 ft 495 kts 73°
2026-05-04 01:12 42.66566 -80.29617 36939 ft 495 kts 73°
2026-05-04 01:13 42.68191 -80.20535 36940 ft 495 kts 73°
2026-05-04 01:13 42.69819 -80.11447 36933 ft 495 kts 74°
2026-05-04 01:14 42.71428 -80.02342 36934 ft 495 kts 74°
2026-05-04 01:14 42.73040 -79.93234 36939 ft 496 kts 74°
2026-05-04 01:15 42.74637 -79.84181 36932 ft 496 kts 74°
2026-05-04 01:15 42.76236 -79.75050 36937 ft 496 kts 74°
2026-05-04 01:16 42.77831 -79.65857 36950 ft 496 kts 74°
2026-05-04 01:16 42.79402 -79.56782 36939 ft 496 kts 74°
2026-05-04 01:17 42.80977 -79.47644 36932 ft 496 kts 75°
2026-05-04 01:17 42.82541 -79.38510 36933 ft 495 kts 75°
2026-05-04 01:18 42.84106 -79.29369 36939 ft 495 kts 75°
2026-05-04 01:18 42.85650 -79.20230 36941 ft 495 kts 75°
2026-05-04 01:19 42.87191 -79.11095 36942 ft 495 kts 75°
2026-05-04 01:19 42.88730 -79.01945 36948 ft 495 kts 75°
2026-05-04 01:20 42.90267 -78.92796 36935 ft 495 kts 75°
2026-05-04 01:20 42.91788 -78.83640 36927 ft 495 kts 75°
2026-05-04 01:21 42.93292 -78.74476 36923 ft 495 kts 75°
2026-05-04 01:21 42.94849 -78.65340 36924 ft 494 kts 74°
2026-05-04 01:22 42.96493 -78.56217 36923 ft 495 kts 74°
2026-05-04 01:22 42.98120 -78.47152 36920 ft 495 kts 74°
2026-05-04 01:23 42.99723 -78.38010 36920 ft 495 kts 74°
2026-05-04 01:23 43.01317 -78.28797 36917 ft 495 kts 75°
2026-05-04 01:24 43.02898 -78.19633 36929 ft 495 kts 75°
2026-05-04 01:24 43.04467 -78.10468 36923 ft 495 kts 75°
2026-05-04 01:25 43.06033 -78.01363 36921 ft 495 kts 75°
2026-05-04 01:25 43.07610 -77.92139 36926 ft 495 kts 75°
2026-05-04 01:26 43.09149 -77.83025 36925 ft 495 kts 75°
2026-05-04 01:26 43.10700 -77.73839 36927 ft 495 kts 74°
2026-05-04 01:27 43.13146 -77.65126 36924 ft 488 kts 56°
2026-05-04 01:27 43.16996 -77.57550 36941 ft 485 kts 50°
2026-05-04 01:28 43.20961 -77.50077 36929 ft 485 kts 50°
2026-05-04 01:28 43.24923 -77.42584 36925 ft 485 kts 50°
2026-05-04 01:29 43.28884 -77.35076 36931 ft 485 kts 51°
2026-05-04 01:29 43.32837 -77.27559 36946 ft 486 kts 51°
2026-05-04 01:30 43.36787 -77.20027 36940 ft 486 kts 51°
2026-05-04 01:30 43.40733 -77.12489 36933 ft 486 kts 51°
2026-05-04 01:31 43.44680 -77.04941 36927 ft 486 kts 51°
2026-05-04 01:31 43.48621 -76.97375 36935 ft 486 kts 51°
2026-05-04 01:32 43.52557 -76.89805 36923 ft 486 kts 51°
2026-05-04 01:32 43.56493 -76.82231 36915 ft 486 kts 51°
2026-05-04 01:33 43.60424 -76.74645 36917 ft 486 kts 51°
2026-05-04 01:33 43.64349 -76.67032 36933 ft 486 kts 52°
2026-05-04 01:34 43.68264 -76.59418 36926 ft 486 kts 52°
2026-05-04 01:34 43.72172 -76.51796 36922 ft 486 kts 52°
2026-05-04 01:35 43.76049 -76.44210 36916 ft 486 kts 52°
2026-05-04 01:35 43.79952 -76.36567 36925 ft 486 kts 52°
2026-05-04 01:36 43.83855 -76.28919 36916 ft 486 kts 52°
2026-05-04 01:36 43.87737 -76.21257 36908 ft 486 kts 52°
2026-05-04 01:37 43.91620 -76.13586 36905 ft 486 kts 52°
2026-05-04 01:37 43.95895 -76.06403 36902 ft 480 kts 38°
2026-05-04 01:38 44.01297 -76.01095 36897 ft 475 kts 28°
2026-05-04 01:38 44.06886 -75.96176 36896 ft 475 kts 28°
2026-05-04 01:39 44.08852 -75.94443 36896 ft 476 kts 28°
2026-05-04 01:48 44.08989 -75.94322 36897 ft 476 kts 29°
2026-05-04 01:49 44.11781 -75.91850 36768 ft 476 kts 29°
2026-05-04 01:49 44.14566 -75.89381 36529 ft 474 kts 29°
2026-05-04 01:49 44.17345 -75.86913 36279 ft 473 kts 29°
2026-05-04 01:49 44.20115 -75.84447 36030 ft 472 kts 29°
2026-05-04 01:50 44.22876 -75.81987 35787 ft 471 kts 29°
2026-05-04 01:50 44.25638 -75.79527 35108 ft 473 kts 28°
2026-05-04 01:50 44.28422 -75.77047 34192 ft 476 kts 28°
2026-05-04 01:50 44.31213 -75.74559 33305 ft 475 kts 28°
2026-05-04 01:51 44.33994 -75.72073 32197 ft 475 kts 28°
2026-05-04 01:51 44.36767 -75.69593 31185 ft 473 kts 28°
2026-05-04 01:51 44.39538 -75.67114 30216 ft 471 kts 27°
2026-05-04 01:51 44.42291 -75.64648 28979 ft 471 kts 27°
2026-05-04 01:52 44.45051 -75.62172 27584 ft 472 kts 27°
2026-05-04 01:52 44.47795 -75.59702 26949 ft 463 kts 27°
2026-05-04 01:52 44.50484 -75.57278 26694 ft 458 kts 27°
2026-05-04 01:52 44.53159 -75.54870 26426 ft 455 kts 27°
2026-05-04 01:53 44.55780 -75.52508 26165 ft 453 kts 27°
2026-05-04 01:53 44.58427 -75.50119 25906 ft 451 kts 27°
2026-05-04 01:53 44.61059 -75.47740 25648 ft 449 kts 27°
2026-05-04 01:53 44.63680 -75.45364 25473 ft 448 kts 27°
2026-05-04 01:54 44.66292 -75.42995 25148 ft 446 kts 27°
2026-05-04 01:54 44.68896 -75.40634 24842 ft 444 kts 27°
2026-05-04 01:54 44.71449 -75.38203 24526 ft 445 kts 32°
2026-05-04 01:54 44.73754 -75.35278 24209 ft 449 kts 41°
2026-05-04 01:55 44.75819 -75.31980 23899 ft 449 kts 44°
2026-05-04 01:55 44.77862 -75.28677 23574 ft 446 kts 44°
2026-05-04 01:55 44.79898 -75.25391 23229 ft 444 kts 44°
2026-05-04 01:55 44.81929 -75.22115 22922 ft 443 kts 44°
2026-05-04 01:56 44.83946 -75.18859 22599 ft 441 kts 44°
2026-05-04 01:56 44.85956 -75.15603 22285 ft 439 kts 44°
2026-05-04 01:56 44.87956 -75.12358 21974 ft 437 kts 44°
2026-05-04 01:56 44.89945 -75.09127 21672 ft 436 kts 44°
2026-05-04 01:57 44.91926 -75.05906 21350 ft 434 kts 44°
2026-05-04 01:57 44.93900 -75.02688 21049 ft 433 kts 44°
2026-05-04 01:57 44.95863 -74.99483 20742 ft 431 kts 44°
2026-05-04 01:57 44.97807 -74.96265 20449 ft 431 kts 47°
2026-05-04 01:58 44.99475 -74.92737 20143 ft 434 kts 56°
2026-05-04 01:58 45.00944 -74.89033 19809 ft 431 kts 56°
2026-05-04 01:58 45.02405 -74.85348 19509 ft 429 kts 56°
2026-05-04 01:58 45.03864 -74.81674 19199 ft 427 kts 56°
2026-05-04 01:59 45.05319 -74.78022 18893 ft 426 kts 56°
2026-05-04 01:59 45.06771 -74.74379 18579 ft 424 kts 56°
2026-05-04 01:59 45.08216 -74.70751 18285 ft 423 kts 56°
2026-05-04 01:59 45.09654 -74.67133 17964 ft 421 kts 56°
2026-05-04 02:00 45.11082 -74.63525 17661 ft 419 kts 56°
2026-05-04 02:00 45.12516 -74.59938 17378 ft 417 kts 55°
2026-05-04 02:00 45.13998 -74.56422 17066 ft 415 kts 54°
2026-05-04 02:00 45.15522 -74.52951 16770 ft 413 kts 53°
2026-05-04 02:01 45.17058 -74.49518 16469 ft 412 kts 53°
2026-05-04 02:01 45.18593 -74.46095 16180 ft 410 kts 53°
2026-05-04 02:01 45.20111 -74.42683 15888 ft 409 kts 53°
2026-05-04 02:01 45.21616 -74.39269 15339 ft 409 kts 54°
2026-05-04 02:02 45.23131 -74.35801 14363 ft 417 kts 54°
2026-05-04 02:02 45.24648 -74.32285 13545 ft 419 kts 54°
2026-05-04 02:02 45.26149 -74.28776 12962 ft 412 kts 54°
2026-05-04 02:02 45.27633 -74.25302 12138 ft 412 kts 54°
2026-05-04 02:03 45.29103 -74.21868 11632 ft 402 kts 54°
2026-05-04 02:03 45.30544 -74.18507 11223 ft 391 kts 54°
2026-05-04 02:03 45.31924 -74.15280 11092 ft 373 kts 54°
2026-05-04 02:03 45.33237 -74.12204 10960 ft 356 kts 54°
2026-05-04 02:04 45.34491 -74.09271 10824 ft 336 kts 53°
2026-05-04 02:04 45.35676 -74.06553 10590 ft 311 kts 49°
2026-05-04 02:04 45.37050 -74.04300 10093 ft 295 kts 36°
2026-05-04 02:04 45.38556 -74.02379 9815 ft 289 kts 35°
2026-05-04 02:05 45.40051 -74.00466 9699 ft 290 kts 36°
2026-05-04 02:05 45.41550 -73.98535 9397 ft 290 kts 36°
2026-05-04 02:05 45.43032 -73.96608 8982 ft 288 kts 37°
2026-05-04 02:05 45.44508 -73.94680 8576 ft 289 kts 37°
2026-05-04 02:06 45.45991 -73.92747 8161 ft 289 kts 37°
2026-05-04 02:06 45.47451 -73.90843 7753 ft 288 kts 38°
2026-05-04 02:06 45.48946 -73.88893 7339 ft 287 kts 38°
2026-05-04 02:06 45.50392 -73.87003 6934 ft 285 kts 38°
2026-05-04 02:07 45.51852 -73.85093 6529 ft 284 kts 39°
2026-05-04 02:07 45.53303 -73.83193 6121 ft 283 kts 39°
2026-05-04 02:07 45.54746 -73.81303 5704 ft 281 kts 39°
2026-05-04 02:07 45.56179 -73.79424 5308 ft 279 kts 40°
2026-05-04 02:08 45.57602 -73.77557 4905 ft 277 kts 40°
2026-05-04 02:08 45.59016 -73.75703 4502 ft 275 kts 40°
2026-05-04 02:08 45.60407 -73.73882 4330 ft 264 kts 40°
2026-05-04 02:08 45.61717 -73.72162 4253 ft 249 kts 40°
2026-05-04 02:09 45.62959 -73.70530 4140 ft 237 kts 40°
2026-05-04 02:09 45.64155 -73.68958 4038 ft 232 kts 40°
2026-05-04 02:09 45.65340 -73.67400 3983 ft 231 kts 40°
2026-05-04 02:09 45.66524 -73.65844 3996 ft 232 kts 40°
2026-05-04 02:10 45.67700 -73.64297 3989 ft 232 kts 40°
2026-05-04 02:10 45.68885 -73.62736 3997 ft 232 kts 40°
2026-05-04 02:10 45.70049 -73.61135 3988 ft 233 kts 49°
2026-05-04 02:10 45.70786 -73.59085 3822 ft 234 kts 78°
2026-05-04 02:11 45.70750 -73.56788 3664 ft 232 kts 108°
2026-05-04 02:11 45.69978 -73.54816 3539 ft 227 kts 137°
2026-05-04 02:11 45.68689 -73.53605 3412 ft 220 kts 165°
2026-05-04 02:11 45.67203 -73.53351 3286 ft 214 kts 189°
2026-05-04 02:12 45.65726 -73.53594 3163 ft 214 kts 190°
2026-05-04 02:12 45.64255 -73.53886 3054 ft 212 kts 197°
2026-05-04 02:12 45.62912 -73.54672 2985 ft 208 kts 216°
2026-05-04 02:12 45.61775 -73.55933 2995 ft 207 kts 223°
2026-05-04 02:13 45.60707 -73.57309 2994 ft 205 kts 224°
2026-05-04 02:13 45.59696 -73.58641 2987 ft 191 kts 224°
2026-05-04 02:13 45.58759 -73.59876 2964 ft 177 kts 225°
2026-05-04 02:13 45.57870 -73.61048 2732 ft 171 kts 225°
2026-05-04 02:14 45.57018 -73.62170 2496 ft 159 kts 225°
2026-05-04 02:14 45.56241 -73.63192 2307 ft 144 kts 224°
2026-05-04 02:14 45.55534 -73.64123 2119 ft 134 kts 225°
2026-05-04 02:14 45.54857 -73.65013 1932 ft 131 kts 224°
2026-05-04 02:15 45.54200 -73.65878 1760 ft 129 kts 224°
2026-05-04 02:15 45.53531 -73.66758 1573 ft 129 kts 224°
2026-05-04 02:15 45.52874 -73.67621 1405 ft 129 kts 224°
2026-05-04 02:15 45.52216 -73.68488 1254 ft 128 kts 224°
2026-05-04 02:16 45.51558 -73.69352 1062 ft 129 kts 223°
2026-05-04 02:16 45.50897 -73.70221 880 ft 129 kts 223°
2026-05-04 02:16 45.50237 -73.71096 666 ft 129 kts 223°
2026-05-04 02:16 45.49575 -73.71960 488 ft 129 kts 222°
2026-05-04 02:17 45.48918 -73.72831 309 ft 129 kts 223°
2026-05-04 02:17 45.48257 -73.73693 152 ft 128 kts 222°
2026-05-04 02:17 45.47644 -73.74494 112 ft 105 kts 223°
2026-05-04 02:17 45.47236 -73.75028 114 ft 61 kts 223°
2026-05-04 02:18 45.46961 -73.75390 109 ft 43 kts 223°
2026-05-04 02:18 45.46793 -73.75558 107 ft 26 kts 202°
2026-05-04 02:18 45.46634 -73.75623 106 ft 18 kts 193°
2026-05-04 02:18 45.46507 -73.75664 105 ft 18 kts 192°
2026-05-04 02:19 45.46378 -73.75705 104 ft 20 kts 192°
2026-05-04 02:19 45.46243 -73.75729 103 ft 20 kts 177°
2026-05-04 02:19 45.46119 -73.75722 102 ft 13 kts 178°
2026-05-04 02:19 45.46059 -73.75667 104 ft 11 kts 98°
2026-05-04 02:20 45.46063 -73.75565 104 ft 10 kts 86°
2026-05-04 02:20 45.46066 -73.75470 104 ft 9 kts 87°
2026-05-04 02:20 45.46062 -73.75384 104 ft 8 kts 107°
2026-05-04 02:20 45.46040 -73.75323 105 ft 6 kts 118°
2026-05-04 02:21 45.46019 -73.75269 105 ft 10 kts 118°
2026-05-04 02:21 45.46005 -73.75170 105 ft 10 kts 88°
2026-05-04 02:21 45.45964 -73.75139 105 ft 7 kts 177°
2026-05-04 02:21 45.45921 -73.75136 105 ft 0 kts 178°